This demonstration page uses our WeatherBlox Daily Observations layout. Learn more.

Left ArrowRight Arrow

47.50024, -111.30081

Hourly Observations for January 3, 2022

Temp ( °F °C ) Dew Point ( °F °C ) Humidity (%) Winds ( mph kmh ) Pressure ( in mb ) Visibility ( mi km ) Precip ( " mm )
12:53 am 00:53 Clear 29 -1.7 12 -11.1 49 49 SSW 23 37 29.93 1013 10 16 0.00 0.00
1:53 am 01:53 Clear 28 -2.2 12 -11.1 51 51 SW 16 26 29.92 1013 10 16 0.00 0.00
2:53 am 02:53 Clear 31 -0.6 12 -11.1 45 45 SSW 18 30 29.91 1013 10 16 0.00 0.00
3:53 am 03:53 Clear 30 -1.1 12 -11.1 47 47 SW 16 26 29.91 1013 10 16 0.00 0.00
4:53 am 04:53 Clear 30 -1.1 12 -11.1 47 47 SSW 14 22 29.88 1012 10 16 0.00 0.00
5:53 am 05:53 Clear 32 0 13 -10.6 45 45 SSW 18 30 29.85 1011 10 16 0.00 0.00
6:53 am 06:53 Clear 32 0 12 -11.1 43 43 SSW 22 35 29.82 1010 10 16 0.00 0.00
7:53 am 07:53 Clear 31 -0.6 13 -10.6 47 47 SSW 14 22 29.80 1009 10 16 0.00 0.00
8:53 am 08:53 Sunny 35 1.7 12 -11.1 38 38 SSW 21 33 29.77 1008 10 16 0.00 0.00
9:53 am 09:53 Sunny 35 1.7 12 -11.1 38 38 SSW 18 30 29.75 1007 10 16 0.00 0.00
10:53 am 10:53 Sunny 37 2.8 14 -10 39 39 S 25 41 29.71 1006 10 16 0.00 0.00
11:53 am 11:53 Sunny 39 3.9 14 -10 36 36 S 23 37 29.68 1005 10 16 0.00 0.00
12:53 pm 12:53 Sunny 41 5 15 -9.4 35 35 SW 17 28 29.65 1004 10 16 0.00 0.00
1:53 pm 13:53 Sunny 41 5 15 -9.4 35 35 SW 22 35 29.62 1003 10 16 0.00 0.00
2:53 pm 14:53 Sunny 41 5 14 -10 33 33 S 12 19 29.62 1003 10 16 0.00 0.00
3:53 pm 15:53 Sunny 39 3.9 15 -9.4 38 38 SSE 7 11 29.61 1003 10 16 0.00 0.00
4:53 pm 16:53 Clear 35 1.7 15 -9.4 44 44 undefined N/A 29.58 1002 10 16 0.00 0.00
5:53 pm 17:53 Clear 35 1.7 14 -10 42 42 SSE 16 26 29.55 1001 10 16 0.00 0.00
6:53 pm 18:53 Mostly Cloudy 36 2.2 15 -9.4 42 42 S 13 20 29.55 1001 10 16 0.00 0.00
7:53 pm 19:53 Partly Cloudy 37 2.8 16 -8.9 42 42 SSW 15 24 29.54 1000 10 16 0.00 0.00
8:53 pm 20:53 Cloudy 16 -8.9 10 -12.2 77 77 NNW 20 31 29.61 1003 10 16 0.00 0.00
9:01 pm 21:01 Cloudy 15 -9.4 9 -12.8 77 77 NNW 18 30 29.74 1007 10 16 0.00 0.00
9:53 pm 21:53 Cloudy 7 -13.9 2 -16.7 80 80 NNW 17 28 29.71 1006 10 16 0.00 0.00
10:28 pm 22:28 Cloudy with Light Snow 5 -15 0 -17.8 79 79 NNW 14 22 29.93 1013 2 2 0.00 0.00
10:35 pm 22:35 Cloudy with Light Snow 4 -15.6 0 -17.8 83 83 N 16 26 29.95 1014 1 2 0.00 0.00
10:48 pm 22:48 Mostly Cloudy with Light Snow 3 -16 0 -18 85 85 NNW 18 30 29.97 1015 1 1 0.01 0.25
10:53 pm 22:53 Mostly Cloudy with Light Snow 3 -16.1 -1 -18.3 83 83 NNW 21 33 29.80 1009 1 1 0.01 0.25
11:11 pm 23:11 Mostly Cloudy with Snow 2 -16.7 -2 -18.9 83 83 NNW 20 31 30.00 1016 0 0 0.01 0.25
11:49 pm 23:49 Mostly Cloudy with Light Snow 1 -17 -2 -19 85 85 N 10 17 30.04 1017 1 1 0.08 2.03
11:53 pm 23:53 Cloudy with Light Snow 1 -17.2 -4 -20 79 79 N 9 15 29.84 1011 1 1 0.08 2.03

Powered by AerisWeather